Date String (YYYY-MM-DD hh:mm:ss) UTC,Instrument flags,Ambient pressure (hPa),Sample flow (lpm),Bypass flow (lpm),Sample temperature (°C),Ambient temperature (°C),ASC tube jacket temperature (°C),LED temperature (°C),Box temperature (°C),Sample RH (%),Span deviation,Mass concentration (μg/m³),Mass concentration (μg/m³),Mass concentration (μg/m³)
DateTimeUTC,F1_M11,P_M11,Q1_M11,Q2_M11,T1_M11,T2_M11,T3_M11,T4_M11,T5_M11,U1_M11,ZSPAN_M11,X0_M11,X2_M11,X1_M11
2022-07-22 23:00:00,,0826.4,5.00,0.00,29.1,27.4,00.0,37.8,31.0,18.0,0000.0,0019.84,0007.07,0005.83
2022-07-22 23:01:00,,0826.4,4.99,0.00,29.2,27.7,00.0,37.8,31.1,17.9,0000.0,0020.53,0007.08,0005.84
2022-07-22 23:02:00,,0826.4,5.00,0.00,29.2,27.9,00.0,37.9,31.2,18.0,0000.0,0020.80,0007.11,0005.83
2022-07-22 23:03:00,,0826.2,5.00,0.00,29.2,27.6,00.0,37.8,31.2,18.0,0000.0,0021.25,0007.12,0005.81
2022-07-22 23:04:00,,0826.3,5.00,0.00,29.2,27.0,00.0,37.8,31.1,18.0,0000.0,0020.93,0007.15,0005.80
2022-07-22 23:05:00,,0826.3,5.00,0.00,29.2,27.0,00.0,37.8,31.0,18.0,0000.0,0019.32,0007.15,0005.79
2022-07-22 23:06:00,,0826.2,5.00,0.00,29.1,27.1,00.0,37.8,31.0,18.0,0000.0,0019.43,0007.16,0005.79
2022-07-22 23:07:00,,0826.2,5.00,0.00,29.1,27.3,00.0,37.8,31.0,17.9,0000.0,0019.37,0007.18,0005.80
2022-07-22 23:08:00,,0826.2,5.00,0.00,29.2,27.5,00.0,37.8,31.1,17.9,0000.0,0020.09,0007.25,0005.80
2022-07-22 23:09:00,,0826.1,5.00,0.00,29.2,27.8,00.0,37.8,31.2,17.8,0000.0,0020.20,0007.25,0005.81
2022-07-22 23:10:00,,0826.1,5.01,0.00,29.2,27.9,00.0,37.8,31.2,17.8,0000.0,0019.87,0007.26,0005.82
2022-07-22 23:11:00,,0826.2,5.00,0.00,29.2,27.3,00.0,37.8,31.2,17.8,0000.0,0020.40,0007.22,0005.81
2022-07-22 23:12:00,,0826.2,5.00,0.00,29.2,27.0,00.0,37.8,31.1,17.6,0000.0,0020.40,0007.23,0005.80
2022-07-22 23:13:00,,0826.2,5.00,0.00,29.2,27.1,00.0,37.8,31.0,17.6,0000.0,0020.88,0007.24,0005.80
2022-07-22 23:14:00,,0826.2,4.99,0.00,29.2,27.3,00.0,37.8,31.0,17.9,0000.0,0020.40,0007.23,0005.81
2022-07-22 23:15:00,,0826.2,5.00,0.00,29.2,27.5,00.0,37.8,31.1,18.1,0000.0,0020.00,0007.19,0005.82
2022-07-22 23:16:00,,0826.1,5.00,0.00,29.2,27.7,00.0,37.8,31.1,18.0,0000.0,0020.95,0007.22,0005.81
2022-07-22 23:17:00,,0826.0,5.00,0.00,29.2,27.9,00.0,37.9,31.2,19.4,0000.0,0020.85,0007.20,0005.79
2022-07-22 23:18:00,,0825.9,5.00,0.00,29.3,28.0,00.0,37.9,31.3,19.9,0000.0,0020.11,0007.09,0005.70
2022-07-22 23:19:00,,0825.8,5.00,0.00,29.3,27.4,00.0,37.8,31.2,19.8,0000.0,0020.28,0006.99,0005.63
2022-07-22 23:20:00,,0825.9,5.00,0.00,29.3,27.1,00.0,37.8,31.1,20.1,0000.0,0019.74,0006.85,0005.54
2022-07-22 23:21:00,,0826.0,5.00,0.00,29.2,27.2,00.0,37.8,31.1,20.0,0000.0,0018.86,0006.69,0005.43
2022-07-22 23:22:00,,0825.9,5.01,0.00,29.2,27.3,00.0,37.8,31.1,20.0,0000.0,0018.32,0006.62,0005.34
2022-07-22 23:23:00,,0825.9,5.00,0.00,29.2,27.6,00.0,37.9,31.2,19.8,0000.0,0018.72,0006.52,0005.27
2022-07-22 23:24:00,,0825.9,4.99,0.00,29.3,27.8,00.0,37.9,31.2,19.8,0000.0,0019.29,0006.39,0005.18
2022-07-22 23:25:00,,0826.0,5.00,0.00,29.3,28.0,00.0,37.9,31.3,19.6,0000.0,0019.56,0006.28,0005.10
2022-07-22 23:26:00,,0826.0,4.99,0.00,29.3,27.7,00.0,37.9,31.3,19.4,0000.0,0019.25,0006.19,0005.04
2022-07-22 23:27:00,,0825.9,4.99,0.00,29.3,27.2,00.0,37.8,31.2,19.5,0000.0,0018.60,0006.06,0004.98
2022-07-22 23:28:00,,0825.9,5.01,0.00,29.3,27.1,00.0,37.8,31.1,19.5,0000.0,0017.29,0005.96,0004.93
2022-07-22 23:29:00,,0825.9,5.00,0.00,29.2,27.2,00.0,37.9,31.1,19.6,0000.0,0017.53,0005.93,0004.92
2022-07-22 23:30:00,,0825.9,5.00,0.00,29.2,27.4,00.0,37.9,31.1,19.6,0000.0,0017.24,0005.95,0004.95
2022-07-22 23:31:00,,0826.0,5.00,0.00,29.2,27.7,00.0,37.9,31.2,19.3,0000.0,0016.73,0005.99,0004.99
2022-07-22 23:32:00,,0826.0,5.00,0.00,29.3,27.9,00.0,37.9,31.3,19.2,0000.0,0016.88,0006.06,0005.03
2022-07-22 23:33:00,,0826.0,4.99,0.00,29.3,27.9,00.0,37.9,31.3,19.1,0000.0,0017.36,0006.12,0005.08
2022-07-22 23:34:00,,0826.0,5.00,0.00,29.3,27.3,00.0,37.9,31.2,19.1,0000.0,0016.72,0006.16,0005.13
2022-07-22 23:35:00,,0826.0,4.98,0.00,29.3,27.0,00.0,37.8,31.1,19.1,0000.0,0015.56,0006.17,0005.17
2022-07-22 23:36:00,,0826.0,5.01,0.00,29.3,27.1,00.0,37.8,31.1,19.2,0000.0,0016.03,0006.17,0005.21
2022-07-22 23:37:00,,0826.0,5.00,0.00,29.2,27.3,00.0,37.9,31.1,19.3,0000.0,0016.13,0006.21,0005.24
2022-07-22 23:38:00,,0826.0,5.00,0.00,29.2,27.5,00.0,37.9,31.1,19.4,0000.0,0016.14,0006.27,0005.25
2022-07-22 23:39:00,,0826.0,4.99,0.00,29.3,27.7,00.0,37.9,31.2,19.4,0000.0,0016.20,0006.31,0005.27
2022-07-22 23:40:00,,0826.0,5.01,0.00,29.3,27.9,00.0,37.9,31.3,19.3,0000.0,0015.95,0006.37,0005.30
2022-07-22 23:41:00,,0826.0,4.99,0.00,29.3,27.6,00.0,37.9,31.3,19.4,0000.0,0015.51,0006.42,0005.31
2022-07-22 23:42:00,,0826.0,4.99,0.00,29.3,27.0,00.0,37.8,31.1,19.4,0000.0,0015.66,0006.45,0005.33
2022-07-22 23:43:00,,0826.0,5.00,0.00,29.2,27.0,00.0,37.8,31.1,19.2,0000.0,0015.46,0006.47,0005.35
2022-07-22 23:44:00,,0826.0,4.99,0.00,29.2,27.2,00.0,37.8,31.1,19.1,0000.0,0014.66,0006.45,0005.35
2022-07-22 23:45:00,,0826.0,5.00,0.00,29.2,27.4,00.0,37.9,31.1,19.4,0000.0,0014.13,0006.46,0005.36
2022-07-22 23:46:00,,0826.0,5.00,0.00,29.2,27.6,00.0,37.9,31.2,19.4,0000.0,0013.88,0006.49,0005.37
2022-07-22 23:47:00,,0826.0,5.01,0.00,29.3,27.8,00.0,37.9,31.2,19.4,0000.0,0013.22,0006.54,0005.38
2022-07-22 23:48:00,,0826.0,5.00,0.00,29.3,27.8,00.0,37.9,31.3,19.4,0000.0,0013.39,0006.54,0005.40
2022-07-22 23:49:00,,0826.0,5.00,0.00,29.3,27.2,00.0,37.8,31.2,19.5,0000.0,0013.19,0006.52,0005.40
2022-07-22 23:50:00,,0826.0,5.00,0.00,29.2,27.0,00.0,37.8,31.1,19.4,0000.0,0013.59,0006.51,0005.41
2022-07-22 23:51:00,,0826.0,5.02,0.00,29.2,27.0,00.0,37.8,31.0,19.4,0000.0,0013.65,0006.47,0005.43
2022-07-22 23:52:00,,0826.1,4.99,0.00,29.2,27.2,00.0,37.8,31.0,19.5,0000.0,0013.88,0006.44,0005.44
2022-07-22 23:53:00,,0826.0,5.01,0.00,29.2,27.4,00.0,37.9,31.1,19.4,0000.0,0013.85,0006.41,0005.45
2022-07-22 23:54:00,,0826.0,5.01,0.00,29.2,27.7,00.0,37.9,31.2,19.5,0000.0,0014.21,0006.45,0005.46
2022-07-22 23:55:00,,0826.0,4.99,0.00,29.3,27.9,00.0,37.9,31.2,19.7,0000.0,0014.54,0006.48,0005.45
2022-07-22 23:56:00,,0826.0,5.00,0.00,29.3,27.9,00.0,37.9,31.3,19.2,0000.0,0014.26,0006.47,0005.45
2022-07-22 23:57:00,,0826.0,5.00,0.00,29.3,27.2,00.0,37.8,31.2,19.5,0000.0,0014.04,0006.47,0005.46
2022-07-22 23:58:00,,0826.0,5.00,0.00,29.2,27.0,00.0,37.8,31.1,19.3,0000.0,0013.96,0006.45,0005.46
2022-07-22 23:59:00,,0826.0,5.00,0.00,29.2,27.1,00.0,37.8,31.1,18.9,0000.0,0014.71,0006.50,0005.48
